Tracking 33744 objects as of 12-Apr-2026
HD Live streaming from Space Station
objects crossing your sky now

STARLINK-1458

Track STARLINK-1458 now!
10-day predictions
STARLINK-1458 is classified as:


NORAD ID: 45675
Int'l Code: 2020-035U
Perigee: 425.3 km
Apogee: 432.8 km
Inclination: 53.0 °
Period: 93.0 minutes
Semi major axis: 6800 km
RCS: Unknown
Launch date: June 4, 2020
Source: United States (US)
Launch site: AIR FORCE EASTERN TEST RANGE (AFETR)
Your satellite tracking list
Your tracking list is empty




NASA's NSSDC Master Catalog

Two Line Element Set (TLE):
1 45675U 20035U   26101.72714419  .00097641  00000-0  18080-2 0  9998
2 45675  53.0477 258.0937 0005459 241.0907 118.9553 15.48227638323966
Source of the keplerian elements: AFSPC